Flag for Venezuela Weather past 2 weeks in Valencia, Venezuela

Now
84 °F

Passing clouds.


Feels Like: 88 °F
Forecast: 70 / 96 °F
Wind: 9 mph from Southeast

Location: Valencia Airport

Current Time: May 4, 2015 at 1:35:14 AM

Latest Report: May 3, 2015 at 10:30 PM


Visibility: N/A

Pressure: 29.92 "Hg

Humidity: 62%

Dew point: 70 °F

Location of ValenciaLocation

Historic Weather in Valencia — Graph

°F

Valencia temperature yesterday

Maximum temperature yesterday: 97 °F (at 1:30 PM)
Minimum temperature yesterday: 79 °F (at 4:30 AM)
Average temperature yesterday: 88 °F

Past Weeks' High & Low Weather Summary

 TemperatureHumidityPressure
High99 °F (Apr 29, 2:30 PM)94% (Apr 26, 5:30 AM)30.15 "Hg (Apr 26, 5:30 AM)
Low73 °F (Apr 26, 5:30 AM)30% (Apr 22, 2:30 PM)29.80 "Hg (Apr 27, 4:30 PM)
Average87 °F56%29.92 "Hg
* Reported Apr 18 10:30 PM — May 3 10:30 PM, Valencia, Weather by CustomWeather, © 2015

Note: Actual official high and low records may vary slightly from our data, if they occured in-between our weather recording intervals... More about our weather records

Advertising

Valencia weather history for previous 24 hours

 ConditionsComfort  
Time TempWeatherWind HumidityBarometerVisibility
10:30 PM
Sun, May 3
84 °FPassing clouds.9 mph62%29.92 "HgN/A
9:30 PM86 °FPassing clouds.5 mph59%29.89 "HgN/A
8:30 PM86 °FPassing clouds.5 mph55%29.86 "HgN/A
7:30 PM88 °FPassing clouds.5 mph52%29.86 "HgN/A
6:30 PM91 °FPassing clouds.5 mph41%29.83 "HgN/A
5:30 PM93 °FScattered clouds.5 mph41%29.80 "HgN/A
4:30 PM95 °FScattered clouds.2 mph39%29.80 "HgN/A
3:30 PM97 °FScattered clouds.6 mph39%29.83 "HgN/A
2:30 PM97 °FPassing clouds.7 mph42%29.86 "HgN/A
1:30 PM97 °FPassing clouds.7 mph39%29.89 "HgN/A
12:30 PM95 °FPassing clouds.7 mph41%29.92 "HgN/A
11:30 AM91 °FPassing clouds.6 mph49%29.95 "HgN/A
10:30 AM90 °FPassing clouds.6 mph52%29.98 "HgN/A
9:30 AM88 °FPassing clouds.7 mph52%29.98 "HgN/A
8:30 AM86 °FPassing clouds.3 mph59%29.98 "HgN/A
7:30 AM82 °FPassing clouds.2 mph62%29.98 "HgN/A
6:30 AM79 °FPassing clouds.6 mph74%29.95 "HgN/A
5:30 AM79 °FPassing clouds.6 mph74%29.89 "HgN/A
4:30 AM79 °FPassing clouds.6 mph70%29.89 "HgN/A
1:30 AM82 °FPassing clouds.8 mph58%29.89 "HgN/A
Weather by CustomWeather, © 2015

See weather overviewHow to use our weather pages